Regional Weather Roundup
Issued by NWS

Home | Current Version | Previous Version | Text Only | Print | Product List | Glossary Off
Versions: 1 2 3 4 5 6 7 8 9 10 11 12 13 14 15 16 17 18 19 20 21 22 23 24 25 26 27 28 29 30 31 32 33 34 35 36 37 38 39 40 41 42 43 44 45 46 47 48 49 50

000
ASUS43 KMKX 212300
RWRWI

WISCONSIN REGIONAL WEATHER ROUNDUP
NATIONAL WEATHER SERVICE MILWAUKEE/SULLIVAN WI
600 PM CDT SUN SEP 21 2014

NOTE: "FAIR" INDICATES FEW OR NO CLOUDS BELOW 12,000 FEET WITH NO
SIGNIFICANT WEATHER AND/OR OBSTRUCTIONS TO VISIBILITY.

WIZ001-002-006>008-014>016-023>028-220000-
NORTHWEST WISCONSIN

CITY           SKY/WX    TMP DP  RH WIND       PRES   REMARKS
SUPERIOR ARPT  SUNNY     64  43  46 NW7       30.12S
ASHLAND        SUNNY     59  45  59 CALM      30.14R
HAYWARD        SUNNY     61  40  45 NW5       30.14R
SIREN          SUNNY     64  45  49 N8        30.14S
RICE LAKE      SUNNY     62  42  48 N7G16     30.14S
LADYSMITH      SUNNY     60  42  52 N10       30.15R
EAU CLAIRE     NOT AVBL
MENOMONIE      CLEAR     64  42  45 NW13      30.13R
NEW RICHMOND   SUNNY     64  43  47 N12       30.16R
OSCEOLA        SUNNY     64  45  50 NW10      30.18R
$$

WIZ003>005-009-010-017-018-220000-
NORTH CENTRAL WISCONSIN

CITY           SKY/WX    TMP DP  RH WIND       PRES   REMARKS
WOODRUFF       CLEAR     52  37  58 N12       30.13R
RHINELANDER    CLEAR     50  36  58 N9        30.13R
EAGLE RIVER    CLEAR     50  35  56 N12       30.11R
LAND O LAKES   CLEAR     50  37  61 N7        30.12R
PHILLIPS       CLEAR     53  37  55 N8        30.13R
TOMAHAWK       CLEAR     52  37  56 NW13      30.13R
MEDFORD        CLEAR     55  41  59 N13G20    30.12R
MERRILL        CLEAR     55  40  58 N14       30.11R
$$

WIZ029-030-035-036-043>047-220000-
CENTRAL WISCONSIN

CITY           SKY/WX    TMP DP  RH WIND       PRES   REMARKS
WAUSAU         CLEAR     56  40  55 N13       30.09R
MOSINEE        NOT AVBL
MARSHFIELD     CLEAR     59  42  53 N14       30.11R
STEVENS POINT  CLEAR     56  41  55 NW12G20   30.09R
WAUPACA        CLEAR     60  43  53 NW9       30.06R
WAUTOMA        NOT AVBL
WISC RAPIDS    CLEAR     59  42  53 N13G22    30.11R
CAMP DOUGLAS   NOT AVBL
$$

WIZ011>013-019>022-031-037>040-048>050-220000-
NORTHEAST WISCONSIN

CITY           SKY/WX    TMP DP  RH WIND       PRES   REMARKS
ANTIGO         PTCLDY    53  42  65 N13       30.09R
STURGEON BAY   PTCLDY    54  37  54 N16G25    30.06R
GREEN BAY      CLEAR     56  43  61 N10       30.07R
MANITOWOC      NOT AVBL
APPLETON       PTCLDY    55  41  58 N9        30.07R
CLINTONVILLE   CLEAR     57  37  47 N9        30.06R
OSHKOSH        CLEAR     58  42  55 N10       30.05R
$$

WIZ032>034-041-042-053>061-220000-
SOUTHWEST WISCONSIN

CITY           SKY/WX    TMP DP  RH WIND       PRES   REMARKS
LA CROSSE      SUNNY     65  44  46 N15       30.11R
SPARTA         SUNNY     64  43  46 NW10      30.10R
VIROQUA        FAIR      61  45  55 NW12      30.10R
BOSCOBEL       SUNNY     66  45  46 NW5       30.10R
PRAIRIE DU CHI PTSUNNY   66  44  45 NW10G18   30.10R
PLATTEVILLE    PTSUNNY   65  46  51 NW13G21   30.09R
$$

WIZ056-057-062-063-064-067-068-220000-
SOUTH CENTRAL WISCONSIN

CITY           SKY/WX    TMP DP  RH WIND       PRES   REMARKS
BARABOO/DELLS  PTCLDY    63  41  44 NW12G18   30.07R
LONE ROCK      NOT AVBL
WATERTOWN      PTCLDY    60  44  55 N12       30.04R
MADISON        MOCLDY    62  45  53 N12G20    30.06R
MIDDLETON      FAIR      64  42  43 N15G21    30.06R
MONROE         MOCLDY    61  45  55 NW10G20   30.06R
JANESVILLE     PTCLDY    64  43  45 NW15G23   30.04R
$$

WIZ051-052-058>065-066-070>072-220000-
SOUTHEAST WISCONSIN

CITY           SKY/WX    TMP DP  RH WIND       PRES   REMARKS
MILWAUKEE      PTCLDY    57  42  57 N14       30.05R
WAUKESHA       PTCLDY    55  43  62 NW12G23   30.06R
MILWAUKEE/TIMM CLEAR     57  39  51 N15G21    30.05R
RACINE         PTCLDY    57  43  59 N14       30.06R
BURLINGTON     PTCLDY    59  42  52 N16       30.04R
KENOSHA        PTCLDY    59  45  59 N9G20     30.04R
FOND DU LAC    CLEAR     58  42  55 N12       30.06R
SHEBOYGAN      MOCLDY    57  42  57 N10G20    30.04R
WEST BEND      CLEAR     55  41  58 N12       30.04R
JUNEAU         CLEAR     58  42  55 NW12G21   30.06R
$$

LSZ147-162-220000-
LAKE SUPERIOR

STATION/POSITION TIME  TEMP    WIND        PRES    WAVE
                       AIR SEA DIR/SP/G            HT/PER
                 (UTC) (F)     (DEG/KT/KT) (MB)    (FT/S)
W MID LAKE BUOY  2150   49 47  220/ 10/ 12 1019.5S   2/ 5
DEVILS ISLAND    2200   54     230/  5/  7 1020.1R
PORT WING        2200   58     290/  3/  5 1020.0
SAXON HARBOR     2200   58        CALM     1020.7S
$$

LMZ867-665-643>646-220000-
LAKE MICHIGAN

STATION/POSITION TIME  TEMP    WIND        PRES    WAVE
                       AIR SEA DIR/SP/G            HT/PER
                 (UTC) (F)     (DEG/KT/KT) (MB)    (FT/S)
N MID LAKE BUOY  2150   48 57  340/ 25/ 33 1015.7R   6/ 6
NORTHPORT PIER   2224   49     340/ 25     1017.6R
KEWAUNEE LAKESHO 2200   56     330/ 12/ 18 1015.8R
SHEBOYGAN LAKESH 2200   57 52  330/ 17/ 20 1016.7R
PORT WASHINGTON  2200   58     340/  8/ 15 1017.3R
ATWATER BUOY     2200   57     340/ 16/ 19 1017.5R
MILWAUKEE LAKESH 2200   58     340/ 17/ 22   N/A
S MID LAKE BUOY  2150   57 62  350/ 23/ 27 1014.8R   9/ 8
KENOSHA   LAKESH 2200   57      20/ 17/ 19 1015.6R
$$

TC  - TEMPERATURE IN CELSIUS
VSB - VISIBILITY IN STATUTE MILES
WCI - WIND CHILL INDEX
HX  - HEAT INDEX




USA.gov is the U.S. government's official web portal to all federal, state and local government web resources and services.